980822 071  0.1+  1.1-    981102 118 (2.5+  0.8-)   000118 900  1.2-  1.5+  

980822 071  0.3-  0.5-    981102 118 (2.9+  0.6-)   000120 355  1.0+  0.1+  

980822 628  1.0-  1.4-    981103 750  0.0   0.9-    000120 355  0.2+  0.7+  

980822 107  0.2+  1.1-    981103 750  0.6-  1.7-    000120 355  0.9+  0.9+  

980822 107  1.8+  1.3-    981103 351  0.4-  1.0-    000128 349  1.1-  0.6+  

980822 107  1.0+  1.0-    981103 351  0.5+  1.2-    000128 349  0.7-  0.2+  

980822 107 (1.3+  2.0-)   981105 402  0.3-  1.0-    000128 349  0.1-  0.2-  

980822 107  1.5+  1.7-    981105 402  0.2-  1.0-    000128 900 (2.2-  3.9+) 

980822 107  1.1+  1.7-    981105 402  0.2-  1.1-    000128 900  0.0   0.1-  

980823 476  1.4+  1.0-    981105 118  0.7-  1.3-    000210 360  0.8-  0.3-  

980823 476  0.8-  1.1-    981105 118  0.1-  1.4-    000210 360  0.6-  0.2-  

980823 476  1.0-  0.8-    981106 605 (2.7+  0.6-)   000302 360  0.6-  0.0   

980823 476 (1.1+  2.5-)   981106 605  1.4+  1.0-    000302 360  0.9-  0.1-  

980823 560  0.2-  0.1+    981107 758  1.5+  0.8-    000305 474  1.5-  1.4+  

980823 476 (1.5+  2.1-)   981107 758  1.3+  1.2-    000305 474  1.6-  1.0+  

980823 560  0.2-  0.4-    981107 758  1.8+  1.2-    000305 474  1.3-  0.9+  

980823 560  0.4-  0.2+    981107 540  0.0   1.4-    000314 900 (2.2-  0.5-) 

980824 758  0.1-  1.2-    981107 540  0.1-  1.1-    000314 900  0.2-  0.0   

980824 758  0.3-  1.1-    981107 540  0.1+  0.8-    000325 360  1.1-  0.2+  

980824 758  0.1-  1.3-    981108 372  0.8-  0.4-    000325 360  1.1-  0.4+  

980824 758  0.6-  1.7-    981108 355  0.3-  0.9-    000406 900  1.0-  1.7+  

980824 143  0.4+  0.1-    981108 360  0.2-  0.8-    000406 900 (2.3-  1.6+) 

980824 143  0.5+  0.0     981108 360  0.5-  0.7-    000407 860 (2.3-  0.1+) 

980824 143  0.7+  0.0     981108 355  0.2+  0.9-    000407 860  1.9-  1.9+  

980825 758 (1.1+  3.0+)   981108 355  0.1-  1.0-    000407 860  1.4-  0.2+  

980825 758  0.1+  1.6-    981108 504  0.5-  0.1+    000508 360  1.0-  0.7+  

980825 758  0.1-  1.8-    981108 504  0.4-  0.8-    000508 360  1.1-  1.6+  

980825 758  0.0   1.3-    981109 963  0.6+  0.5-    000508 360  0.7+  1.2+  

980825 372  1.1-  0.6+    981110 351  0.7+  1.4-    

980825 372  1.5-  0.4+    981110 351  1.0+  0.6-    



NAKANO

         **** Don't distribute anyone except personal use only ****

                (C) Copyright 2000 OAA/ComputingSection

write mail from CFAD0::NAKANO on 2000-05-22 23:02:40(JST).

 



    C/1998 M5 (LINEAR) 

Epoch 1999 Jan. 22.0 TT = JDT 2451200.5  

T 1999 Jan. 24.57114 TT                                 Nakano

q   1.7422811            (2000.0)            P               Q

z  +0.0022725      Peri.  101.28441     -0.11550978     -0.88854703

 +/-0.0000004      Node   333.37675     -0.19729128     +0.45861561

e   0.9960407      Incl.   82.22885     +0.97351612     -0.01248568

From 1141 observations 1998 June 30-2000 Apr. 7, mean residual 0".65.



NAKANO

         **** Don't distribute anyone except personal use only ****

                (C) Copyright 2000 OAA/ComputingSection

write mail from CFAD0::NAKANO on 2000-04-18 01:20:24(JST).

 



    C/1998 M5 (LINEAR) 

Epoch 1999 Jan. 22.0 TT = JDT 2451200.5  

T 1999 Jan. 24.57117 TT                                 Nakano

q   1.7422809            (2000.0)            P               Q

z  +0.0022727      Peri.  101.28442     -0.11551000     -0.88854704

 +/-0.0000004      Node   333.37675     -0.19729120     +0.45861559

e   0.9960404      Incl.   82.22885     +0.97351611     -0.01248592

From 1126 observations 1998 June 30-2000 Jan. 20, mean residual 0".65.

980824 143  0.5+  0.1-    981107 758  1.8+  1.2-    



NAKANO

         **** Don't distribute anyone except personal use only ****

                (C) Copyright 2000 OAA/ComputingSection

write mail from CFAD0::NAKANO on 2000-01-25 02:03:41(JST).

 





    C/1998 M5 (LINEAR) 

Epoch 1999 Jan. 22.0 TT = JDT 2451200.5  

T 1999 Jan. 24.57127 TT                                 Nakano

q   1.7422801            (2000.0)            P               Q

z  +0.0022737      Peri.  101.28447     -0.11551087     -0.88854697

 +/-0.0000005      Node   333.37676     -0.19729090     +0.45861570

e   0.9960387      Incl.   82.22886     +0.97351607     -0.01248683

From 1092 observations 1998 June 30-1999 Dec. 7, mean residual 0".65.



NAKANO

         **** Don't distribute anyone except personal use only ****

                (C) Copyright 1999 OAA/ComputingSection

write mail from CFAD0::NAKANO on 1999-12-16 02:37:47(JST).



    C/1998 M5 (LINEAR) 

Epoch 1999 Jan. 22.0 TT = JDT 2451200.5  

T 1999 Jan. 24.57132 TT                                 Nakano

q   1.7422796            (2000.0)            P               Q

z  +0.0022740      Peri.  101.28450     -0.11551138     -0.88854692

 +/-0.0000005      Node   333.37676     -0.19729072     +0.45861578

e   0.9960380      Incl.   82.22887     +0.97351605     -0.01248736

From 1083 observations 1998 June 30-1999 Nov. 16, mean residual 0".64.



NAKANO

         **** Don't distribute anyone except personal use only ****

                (C) Copyright 1999 OAA/ComputingSection

write mail from CFAD0::NAKANO on 1999-11-22 03:07:15(JST).

 



    C/1998 M5 (LINEAR) 

Epoch 1999 Jan. 22.0 TT = JDT 2451200.5  

T 1999 Jan. 24.57136 TT                                 Nakano

q   1.7422792            (2000.0)            P               Q

z  +0.0022742      Peri.  101.28453     -0.11551173     -0.88854689

 +/-0.0000005      Node   333.37676     -0.19729055     +0.45861584

e   0.9960377      Incl.   82.22887     +0.97351604     -0.01248775

From 1078 observations 1998 June 30-1999 Oct. 20, mean residual 0".64.



NAKANO

         **** Don't distribute anyone except personal use only ****

                (C) Copyright 1999 OAA/ComputingSection

write mail from CFAD0::NAKANO on 1999-10-26 05:12:24(JST).



    C/1998 M5 (LINEAR) 

Epoch 1999 Jan. 22.0 TT = JDT 2451200.5  

T 1999 Jan. 24.57144 TT                                 Nakano

q   1.7422788            (2000.0)            P               Q

z  +0.0022747      Peri.  101.28456     -0.11551236     -0.88854686

 +/-0.0000005      Node   333.37677     -0.19729041     +0.45861587

e   0.9960369      Incl.   82.22887     +0.97351599     -0.01248837

From 1039 observations 1998 June 30-1999 June 8, mean residual 0".65.



    C/1998 M5 (LINEAR) 

Epoch 1999 Jan. 22.0 TT = JDT 2451200.5  

T 1999 Jan. 24.57207 TT                                 Nakano

q   1.7422685            (2000.0)            P               Q

z  +0.0022762      Peri.  101.28509     -0.11552088     -0.88854599

 +/-0.0000008      Node   333.37680     -0.19728652     +0.45861731

e   0.9960343      Incl.   82.22889     +0.97351577     -0.01249759

From 903 observations 1998 June 30-1999 Mar. 28, mean residual 0".64.



    C/1998 M5 (LINEAR) 

Epoch 1999 Jan. 22.0 TT = JDT 2451200.5  

T 1999 Jan. 24.57264 TT                                 Nakano

q   1.7422560            (2000.0)            P               Q

z  +0.0022796      Peri.  101.28567     -0.11552861     -0.88854453

 +/-0.0000011      Node   333.37674     -0.19727997     +0.45861987

e   0.9960283      Incl.   82.22877     +0.97351618     -0.01250704



    C/1998 M5 (LINEAR) 

Epoch 1999 Jan. 22.0 TT = JDT 2451200.5  

T 1999 Jan. 24.57349 TT                                 Nakano

q   1.7422351            (2000.0)            P               Q

z  +0.0022863      Peri.  101.28659     -0.11553993     -0.88854183

 +/-0.0000019      Node   333.37656     -0.19726770     +0.45862471

e   0.9960167      Incl.   82.22846     +0.97351732     -0.01252183

From 836 observations 1998 June 30-1999 Jan. 30, mean residual 0".63.



    C/1998 M5 (LINEAR) 

Epoch 1999 Jan. 22.0 TT = JDT 2451200.5  

T 1999 Jan. 24.57466 TT                                 Nakano

q   1.7422159            (2000.0)            P               Q

z  +0.0022973      Peri.  101.28752     -0.11555102     -0.88853893

 +/-0.0000031      Node   333.37634     -0.19725481     +0.45862992

e   0.9959977      Incl.   82.22812     +0.97351862     -0.01253661

From 814 observations 1998 June 30-1999 Jan. 1, mean residual 0".63.



    C/1998 M5 (LINEAR) 

Epoch 1999 Jan. 22.0 TT = JDT 2451200.5  

T 1999 Jan. 24.57514 TT                                 Nakano

q   1.7422051            (2000.0)            P               Q

z  +0.0023017      Peri.  101.28800     -0.11555645     -0.88853730

 +/-0.0000036      Node   333.37621     -0.19724766     +0.45863287

e   0.9959899      Incl.   82.22792     +0.97351942     -0.01254413

From 769 observations 1998 June 30-Dec. 5, mean residual 0".63.



–ß‚è‚Ü‚·B